Meteo Giornale » Osservazioni meteo Austria » Vienna-Schwechat

ore: 13:50 - Osservazioni Meteo Vienna-Schwechat
Lat. 48° 7' N Lon. 16° 34' E Alt. 183 metri s.l.m.

nuvoloso_piovaschi Europe/Vienna

15 °C

Debole Rovescio di Pioggia

Temp. 24 Ore

12 °C

21 °C

Nord-Ovest

13 Km/h

Dew point 10 °C

Umidità 72 %

Visibilità  10 Km

Il sole sorge alle ore 05:00

Il sole tramonta alle ore 20:40

Data e Ora Cielo e Fenomeni T °C DP °C Um. % Pres. hPa Vis. km Vento km/h
Oggi h: 13:50 nuvoloso_piovaschi Debole Rovescio di Pioggia 15 10 72 1020 10 NO 13
Oggi h: 13:20 nuvoloso_piovaschi Debole Rovescio di Pioggia 15 10 72 1020 10 N/NO 11.1
Oggi h: 12:50 nuvoloso_piovaschi Debole Rovescio di Pioggia 15 9 67 1020 10 N/NO 14.8
Oggi h: 12:20 nuvoloso_piovaschi Debole Rovescio di Pioggia 15 9 67 1020 10 N/NO 16.7
Oggi h: 11:50 nuvoloso_piovaschi Debole Rovescio di Pioggia 15 9 67 1021 10 N/NO 22.2
Oggi h: 11:20 molto_nuvoloso Molto Nuvoloso 15 8 62 1021 10 N/NO 25.9
Oggi h: 10:50 molto_nuvoloso Molto Nuvoloso 14 8 67 1021 10 NO 25.9
Oggi h: 10:20 molto_nuvoloso Molto Nuvoloso 14 8 67 1020 10 NO 29.6
Oggi h: 09:50 molto_nuvoloso Molto Nuvoloso 14 8 67 1020 10 NO 31.5
Oggi h: 09:20 molto_nuvoloso Molto Nuvoloso 13 8 71 1020 10 NO 22.2
Oggi h: 08:50 molto_nuvoloso Molto Nuvoloso 13 8 71 1020 10 NO 29.6
Oggi h: 08:20 molto_nuvoloso Molto Nuvoloso 13 8 71 1020 10 NO 25.9
Oggi h: 07:50 molto_nuvoloso Molto Nuvoloso 13 8 71 1020 10 NO 22.2
Oggi h: 07:20 molto_nuvoloso Molto Nuvoloso 12 8 76 1020 10 NO 22.2
Oggi h: 06:50 sereno Sereno 12 8 76 1020 10 NO 20.3
Oggi h: 06:20 sereno Sereno 12 7 71 1020 10 NO 20.3
Oggi h: 05:50 sereno Sereno 12 7 71 1019 10 NO 24
Oggi h: 05:20 sereno Sereno 12 7 71 1019 10 NO 20.3
Oggi h: 04:50 sereno Sereno 12 7 71 1019 10 NO 20.3
Oggi h: 04:20 nuvoloso Nuvoloso 12 7 71 1019 10 NO 18.5
Oggi h: 03:50 molto_nuvoloso Molto Nuvoloso 12 7 71 1019 10 NO 14.8
Oggi h: 03:20 sereno Sereno 12 7 71 1019 10 NO 16.7
Oggi h: 02:50 poco_nuvoloso Poco Nuvoloso 12 6 66 1019 10 NO 14.8
Oggi h: 02:20 poco_nuvoloso Poco Nuvoloso 13 6 62 1019 10 NO 20.3
Oggi h: 01:50 coperto Coperto 14 6 58 1019 10 NO 20.3
Oggi h: 01:20 coperto Coperto 14 6 58 1019 10 NO 16.7
Oggi h: 00:50 coperto Coperto 14 6 58 1019 10 NO 14.8
Oggi h: 00:20 sereno Sereno 14 6 58 1019 10 N/NO 13
Ieri h: 23:50 sereno Sereno 14 6 58 1019 10 NO 11.1
Ieri h: 23:20 sereno Sereno 14 6 58 1019 10 NO 11.1
Ieri h: 22:50 sereno Sereno 15 5 51 1019 10 N/NO 11.1
Ieri h: 22:20 sereno Sereno 15 6 54 1019 10 N/NO 14.8
Ieri h: 21:50 nuvoloso_piovaschi Debole Rovescio di Pioggia 15 6 54 1019 10 N 16.7
Ieri h: 21:20 sereno Sereno 15 5 51 1018 10 N 20.3
Ieri h: 20:50 sereno Sereno 16 6 51 1018 10 N 18.5
Ieri h: 20:20 sereno Sereno 16 6 51 1018 10 N 20.3
Ieri h: 19:50 sereno Sereno 16 6 51 1017 10 N 20.3
Ieri h: 19:20 molto_nuvoloso Molto Nuvoloso 17 6 48 1017 10 N 22.2
Ieri h: 18:50 molto_nuvoloso Molto Nuvoloso 18 5 42 1016 10 N 24
Ieri h: 18:20 molto_nuvoloso Molto Nuvoloso 19 6 42 1016 10 N/NO 20.3
Ieri h: 17:50 molto_nuvoloso Molto Nuvoloso 19 5 39 1016 10 N/NO 29.6
Ieri h: 17:20 nuvoloso Nuvoloso 20 7 42 1016 10 N/NO 31.5
Ieri h: 16:50 nuvoloso Nuvoloso 21 7 40 1016 10 NO 25.9
Ieri h: 16:20 nuvoloso Nuvoloso 20 8 45 1016 10 NO 24
Ieri h: 15:50 nuvoloso Nuvoloso 20 10 52 1016 10 NO 27.8
Ieri h: 15:20 nuvoloso Nuvoloso 20 14 68 1017 10 O/NO 20.3
Ieri h: 14:50 molto_nuvoloso Molto Nuvoloso 18 15 82 1017 10 O 14.8